Simultaneous Nadir Overpasses (SNOs) Predictions

Prediction of SNOs between GOES-15 and TERRA Satellite Orbit:

Table of predicted SNOs for the next 14.0 days since TLE Epoch: 10/15/2017
Index Date Time (GOES-15) GOES-15 Lat,Lon TERRA Lat,Lon Distance(km) Time Diff (sec)
1 10/15/2017 19:43:37 -0.28,-135.30 0.45,-138.62 378.56 80
2 10/17/2017 19:31:25 -0.28,-135.26 -0.22,-135.67 45.86 80
3 10/19/2017 19:21:52 -0.28,-135.22 -0.84,-132.71 286.71 80
4 10/20/2017 07:43:15 0.27,-135.20 -0.30,-137.89 306.22 80
5 10/22/2017 07:28:22 0.27,-135.15 0.32,-134.93 25.38 80
6 10/24/2017 07:16:09 0.27,-135.10 0.95,-131.97 356.47 80
7 10/24/2017 19:37:24 -0.26,-135.09 0.17,-137.12 230.28 80
8 10/26/2017 19:27:51 -0.26,-135.04 -0.46,-134.16 100.25 80
9 10/27/2017 07:49:14 0.25,-135.02 -0.67,-139.34 491.35 80
10 10/28/2017 19:15:37 -0.26,-134.97 -1.04,-131.19 430.25 80
11 10/29/2017 07:37:01 0.25,-134.95 -0.03,-136.38 161.69 80




NCC Satellite Simultaneous Nadir Overpasses (SNOs) Prediction Service
